This is the latest recevied weather packets stored in our database for station/object KY0TEQ-13. If no packets are shown the sender has not sent any weather packets the latest 10 day(s).
| Time | Temp. | Humidity | Pressure | Rain* | Wind** | Luminosity | Snow |
|---|---|---|---|---|---|---|---|
| 1787917945 | 13.33° C | 54% | 1313.3 hPa | 0 mm | - | 0 W/m² | - |
| 1787917640 | 13.89° C | 54% | 1313.2 hPa | 0 mm | - | 0 W/m² | - |
| 1787917336 | 13.33° C | 54% | 1313 hPa | 0 mm | - | 0 W/m² | - |
| 1787917035 | 13.33° C | 55% | 1313.2 hPa | 0 mm | - | 0 W/m² | - |
| 1787916730 | 14.44° C | 53% | 1313.2 hPa | 0 mm | - | 0 W/m² | - |
| 1787916425 | 14.44° C | 51% | 1313.4 hPa | 0 mm | - | 0 W/m² | - |
| 1787916121 | 15° C | 50% | 1313.3 hPa | 0 mm | - | 0 W/m² | - |
| 1787915815 | 14.44° C | 51% | 1313.2 hPa | 0 mm | - | 0 W/m² | - |
| 1787915510 | 13.89° C | 53% | 1313.2 hPa | 0 mm | - | 0 W/m² | - |
| 1787915204 | 13.89° C | 53% | 1312.9 hPa | 0 mm | - | 0 W/m² | - |
| 1787914899 | 13.89° C | 53% | 1312.9 hPa | 0 mm | - | 0 W/m² | - |
| 1787914597 | 13.89° C | 54% | 1313 hPa | 0 mm | - | 0 W/m² | - |
| 1787914293 | 15° C | 50% | 1312.8 hPa | 0 mm | - | 0 W/m² | - |
| 1787913992 | 15° C | 49% | 1313 hPa | 0 mm | - | 0 W/m² | - |
| 1787913687 | 16.11° C | 47% | 1313 hPa | 0 mm | - | 0 W/m² | - |
| 1787913387 | 16.67° C | 44% | 1312.9 hPa | 0 mm | - | 0 W/m² | - |
| 1787913081 | 16.67° C | 44% | 1312.9 hPa | 0 mm | - | 0 W/m² | - |
| 1787912779 | 17.22° C | 42% | 1312.8 hPa | 0 mm | - | 0 W/m² | - |
| 1787912475 | 17.22° C | 42% | 1312.9 hPa | 0 mm | - | 0 W/m² | - |
| 1787912174 | 16.67° C | 44% | 1312.8 hPa | 0 mm | - | 0 W/m² | - |
| 1787911869 | 16.67° C | 44% | 1312.9 hPa | 0 mm | - | 0 W/m² | - |
| 1787911568 | 16.67° C | 43% | 1312.8 hPa | 0 mm | - | 0 W/m² | - |
| 1787911263 | 16.67° C | 44% | 1312.9 hPa | 0 mm | - | 0 W/m² | - |
| 1787910959 | 16.11° C | 45% | 1312.8 hPa | 0 mm | - | 0 W/m² | - |
| 1787910655 | 16.11° C | 45% | 1312.7 hPa | 0 mm | - | 0 W/m² | - |
* Rain latest hour (hover to see other rain measurements)
** Current wind speed in m/s (hover to see current wind gust speed)